TimeEDT,TemperatureF,Dew PointF,Humidity,Sea Level PressureIn,VisibilityMPH,Wind Direction,Wind SpeedMPH,Gust SpeedMPH,PrecipitationIn,Events,Conditions,WindDirDegrees,DateUTC
12:54 AM,42.1,33.1,70,30.30,10.0,Calm,Calm,-,N/A,,Clear,0,2013-04-26 04:54:00
1:54 AM,42.1,33.1,70,30.30,10.0,Calm,Calm,-,N/A,,Clear,0,2013-04-26 05:54:00
2:54 AM,39.9,33.1,77,30.30,10.0,Calm,Calm,-,N/A,,Clear,0,2013-04-26 06:54:00
3:54 AM,41.0,33.1,73,30.33,10.0,Calm,Calm,-,N/A,,Clear,0,2013-04-26 07:54:00
4:54 AM,39.9,33.1,77,30.35,10.0,WNW,3.5,-,N/A,,Clear,290,2013-04-26 08:54:00
5:54 AM,37.9,33.1,83,30.37,10.0,WNW,4.6,-,N/A,,Clear,290,2013-04-26 09:54:00
6:54 AM,41.0,34.0,76,30.40,10.0,NW,5.8,-,N/A,,Clear,310,2013-04-26 10:54:00
7:54 AM,48.9,36.0,61,30.41,10.0,Calm,Calm,-,N/A,,Clear,0,2013-04-26 11:54:00
8:54 AM,52.0,36.0,54,30.43,10.0,NNW,8.1,-,N/A,,Clear,340,2013-04-26 12:54:00
9:54 AM,54.0,37.9,55,30.44,10.0,North,8.1,-,N/A,,Clear,360,2013-04-26 13:54:00
10:54 AM,55.9,34.0,44,30.44,10.0,Variable,5.8,-,N/A,,Clear,0,2013-04-26 14:54:00
11:54 AM,57.9,34.0,41,30.43,10.0,NNW,6.9,-,N/A,,Clear,340,2013-04-26 15:54:00
12:54 PM,59.0,35.1,41,30.41,10.0,NNW,6.9,-,N/A,,Clear,330,2013-04-26 16:54:00
1:54 PM,61.0,30.9,32,30.40,10.0,North,4.6,-,N/A,,Clear,360,2013-04-26 17:54:00
2:54 PM,62.1,30.0,30,30.39,10.0,Variable,3.5,-,N/A,,Clear,0,2013-04-26 18:54:00
3:54 PM,62.1,28.0,28,30.38,10.0,WNW,4.6,-,N/A,,Clear,300,2013-04-26 19:54:00
4:54 PM,63.0,30.0,29,30.37,10.0,NW,9.2,-,N/A,,Clear,310,2013-04-26 20:54:00
5:54 PM,62.1,26.1,25,30.38,10.0,Variable,3.5,-,N/A,,Clear,0,2013-04-26 21:54:00
6:54 PM,61.0,24.1,24,30.37,10.0,WNW,4.6,-,N/A,,Clear,290,2013-04-26 22:54:00
7:54 PM,57.0,25.0,29,30.38,10.0,Calm,Calm,-,N/A,,Clear,0,2013-04-26 23:54:00
8:54 PM,54.0,27.0,35,30.40,10.0,Calm,Calm,-,N/A,,Clear,0,2013-04-27 00:54:00
9:54 PM,50.0,30.0,46,30.41,10.0,Calm,Calm,-,N/A,,Clear,0,2013-04-27 01:54:00
10:54 PM,50.0,28.0,43,30.41,10.0,Calm,Calm,-,N/A,,Clear,0,2013-04-27 02:54:00
11:54 PM,45.0,30.9,58,30.42,10.0,Calm,Calm,-,N/A,,Clear,0,2013-04-27 03:54:00